Location: Leipzig
(51.3392°N, 12.3528°E)
Time: 12:46:12
(UTC+01:00)

ISS - Visible Passes

Search period start: 22 January 2018 00:00
Search period end: 01 February 2018 00:00
Orbit: 402 x 407 km, 51.6° (Epoch: 22 January)

Date Brightness Start Highest point End Pass type
(mag) Time Alt. Az. Time Alt. Az. Time Alt. Az.
26 Jan -1.6 18:55:09 10° SSW 18:56:24 16° S 18:56:24 16° S visible
27 Jan -1.5 18:04:01 10° SSE 18:05:26 12° SE 18:06:25 11° ESE visible
27 Jan -1.2 19:38:09 10° SW 19:39:05 17° SW 19:39:05 17° SW visible
28 Jan -2.9 18:46:05 10° SW 18:49:02 33° SSE 18:49:02 33° SSE visible
29 Jan -2.2 17:54:14 10° SSW 17:56:50 22° SE 17:58:54 13° E visible
29 Jan -2.1 19:29:41 10° WSW 19:31:34 31° WSW 19:31:34 31° WSW visible
30 Jan -3.5 18:37:24 10° WSW 18:40:36 54° SSE 18:41:23 41° ESE visible
30 Jan -0.4 20:13:45 10° W 20:14:02 12° W 20:14:02 12° W visible
31 Jan -2.9 17:45:14 10° SW 17:48:17 37° SSE 17:51:09 11° E visible
31 Jan -2.9 19:21:19 10° W 19:23:48 48° W 19:23:48 48° W visible
